一网星座-0586星 (ONEWEB-0586 )

导读

ONEWEB-0586是英国OneWeb卫星互联网星座中的一颗低轨通信卫星,于北京时间2022年12月8日发射入轨。作为OneWeb全球宽带星座组网卫星之一,它运行于近地轨道,采用Ku波段用户通信、Ka波段关口站通信,单颗重约147.5kg,工作寿命约5年,主要为全球尤其是偏远地区提供高速宽带互联网接入服务,助力实现全球网络覆盖,支撑空天地一体化通信网络建设。

基本信息
目录编号:
54653
目录名称:
ONEWEB-0586
国际标识:
2022-166M
轨道中心:
EARTH
卫星名称:
一网星座-0586星
卫星全名:
一网星座-0586星 (ONEWEB-0586 )
卫星状态:
在轨 (已飞行1377 天)
发射日期:
2022-12-08 UTC
国别 :
英国 (GB)
星等 :
--
该卫星已列入 空间交会检测服务 Space Conjunction Data Service (SCDS) ,当前飞行风险评估等级: 无高风险
轨道信息
数据来源 国际轨道数据 AOE轨道数据
星历时间 2026-09-15T16:30:39+0800
15小时前
查看轨道信息
2026-09-15T06:00:00+0800
1天前
查看轨道信息
半长轴 7555.896km 7555.897km
偏心率 0.0002286 0.0002152
轨道倾角 87.927° 87.928°
近地点辐角 86.500° 85.144°
升交点赤经 226.046° 226.131°
平近点角 273.639° 352.165°
近地点 1176.031km 1176.133km
远地点 1179.487km 1179.387km
周期 108.940分钟 108.940分钟
每日圈数 13.218246 13.218243
详细信息
平衡模式:
三轴稳定
覆盖范围:
全球
运营商:
一网卫星公司
运营商所在国:
英国
制造商(研发单位):
一网卫星公司
制造商所在国:
英国
使用方式:
暂无
卫星简介
OneWeb卫星网络由648颗重约125公斤的微型卫星组成,运行在1200公里的轨道上。 每颗卫星都能够提供至少每秒8千兆位的吞吐量,以使用其高吞吐量的Ku频段有效载荷为家庭和移动平台提供互联网接入。该卫星仍在工作。
2D轨道图
3D轨道图
轨道高度分析图
轨道倾角分析图
轨道综合分析图
查看轨道综合分析图
交会数据列表
事件ID 空间交会对象 最接近时刻(TCA) 交会距离 交会风险概率(CRP) 交会风险指数(CRI) 操作
CDM_260916-220702-498505-465324
2026-09-16T
22:07:35+0000
1.246 km
极远距离
1.186416E-5 中风险 0.56
与全量物体交会距离演化趋势 订阅飞行安全评估服务
与全量物体交会风险概率演化趋势 订阅飞行安全评估服务